Regional Weather Roundup
Issued by NWS

Home | Current Version | Previous Version | Graphics & Text | Print | Product List | Glossary On
Versions: 1 2 3 4 5 6 7 8 9 10 11 12 13 14 15 16 17 18 19 20 21 22 23 24 25 26 27
000
ASUS45 KBOU 190706
RWRCO

WEATHER ROUNDUP FOR COLORADO
NATIONAL WEATHER SERVICE DENVER/BOULDER CO
100 AM MDT SAT APR 19 2014

NOTE: "FAIR" INDICATES FEW OR NO CLOUDS BELOW 12000 FEET WITH NO
SIGNIFICANT WEATHER AND/OR OBSTRUCTIONS TO VISIBILITY.

COZ001>005-013-030-031-190800-
...NORTHWEST COLORADO...

CITY           SKY/WX    TMP DP  RH WIND       PRES   REMARKS
CRAIG          PTCLDY    42  33  70 CALM      30.03R
HAYDEN         PTCLDY    48  30  49 W3        30.06R
MEEKER         CLOUDY    58  25  28 W10       30.05R
MOUNT WERNER   PTCLDY    41  14  33 SW16G23   30.21S
STEAMBOAT SPGS PTCLDY    45  24  42 CALM      30.05R
WALDEN         MOCLDY    36  23  60 CALM      30.09R
$$

COZ006>008-011-190800-
...WEST CENTRAL VALLEYS...

CITY           SKY/WX    TMP DP  RH WIND       PRES   REMARKS
GRAND JUNCTION CLOUDY    61  31  32 W7        30.01R
MONTROSE       CLOUDY    59  29  31 S8        30.06R
EAGLE          CLOUDY    54  34  47 SW14      30.09S
RIFLE          CLOUDY    58  30  34 S8        30.02R
DELTA          CLOUDY    65  31  28 SE6       30.02S
NUCLA            N/A     55  28  35 SE3       30.11S
$$

COZ017>023-064>068-190800-
...SOUTHWEST COLORADO...

CITY           SKY/WX    TMP DP  RH WIND       PRES   REMARKS
DURANGO        CLOUDY    53  30  41 SW13      30.13R
CORTEZ         CLOUDY    55  37  50 S12       30.13R
PAGOSA SPRINGS CLOUDY    53  28  38 S7        30.16R
TELLURIDE      CLOUDY    45  30  57 E3        30.20S
WOLF CREEK PAS CLOUDY    30  28  93 SW9G16    30.29F WCI  22
$$

COZ009-010-012-014-032>034-037-058>063-190800-
...CENTRAL COLORADO...

CITY           SKY/WX    TMP DP  RH WIND       PRES   REMARKS
ASPEN          MOCLDY    44  28  53 S6        30.12S
BUENA VISTA    PTCLDY    42  28  56 W5        30.12R
COPPER MTN     PTCLDY    37  21  52 SW9       30.28S
BERTHOUD PASS  FAIR      30  19  64 W24G31    30.28F WCI  16
COTTONWOOD PAS PTCLDY    45  19  36 W12       30.20R
GUNNISON       PTCLDY    43  25  49 NW3       30.16S
KREMMLING      MOCLDY    50  27  40 SW3       30.09R
LEADVILLE      PTCLDY    35  20  54 NE8       30.19S WCI  29
MONARCH PASS   MOCLDY    32  23  69 W17       30.39S WCI  21
SALIDA         PTCLDY    45  26  48 CALM      30.17S
SUNLIGHT       CLOUDY    36  32  87 CALM      30.26S
WILKERSON PASS PTCLDY    36  23  60 SW8       30.26S
$$

COZ069>075-190800-
...SAN LUIS VALLEY/SANGRE DE CRISTO MOUNTAINS...

CITY           SKY/WX    TMP DP  RH WIND       PRES   REMARKS
ALAMOSA        CLOUDY    43  33  68 S9        30.13R
LA VETA PASS   CLOUDY    39  28  65 SW10G22   30.20R
SAGUACHE       CLOUDY    48  25  40 NW9       30.12S
$$

COZ035-036-038>040-190800-
...NORTHERN COLORADO FRONT RANGE...

CITY           SKY/WX    TMP DP  RH WIND       PRES   REMARKS
DENVER INTL AP PTCLDY    54  31  41 SW9       29.91R
DMNS CITY PARK   N/A     58  28  31 SW3       29.91S
AURORA         MOCLDY    52  30  43 S8        29.94R
FRONT RANGE AP NOT AVBL
ERIE MUNI ARPT CLEAR     51  31  46 S3        29.90R
BOULDER MUN AP CLEAR     59  28  31 W5        29.90S
CENTENNIAL     PTCLDY    50  29  44 E9        29.94R
BROOMFIELD     CLEAR     61  27  27 CALM      29.93R
FORT COLLINS   PTCLDY    54  34  47 N8        29.91R
LONGMONT       PTCLDY    54  32  43 NW7       29.91S
$$

COZ041-046-047-076>085-087-088-190800-
...PIKES PEAK/PALMER DIVIDE AND SOUTHERN FOOTHILLS...

CITY           SKY/WX    TMP DP  RH WIND       PRES   REMARKS
COLO. SPRINGS  MOCLDY    54  28  36 SW9       29.99R
A. F. ACADEMY  MOCLDY    46  29  50 N7        30.00S
ELLICOTT       NOT AVBL
FALCON         MOCLDY    52  25  35 NW9       30.02R
FORT CARSON    MOCLDY    57  28  33 SW3       29.96R
LIMON          MOCLDY    45  35  68 SE5       29.93S
MONUMENT HILL  PTCLDY    50  25  37 SW10      30.00F
TRINIDAD       MOCLDY    58  35  42 W22       30.00R
$$

COZ042>045-048>051-090-091-190800-
...NORTHEAST COLORADO...

CITY           SKY/WX    TMP DP  RH WIND       PRES   REMARKS
GREELEY ARPT   PTCLDY    46  32  57 NW7       29.88S
AKRON          MOCLDY    53  39  59 S13       29.86S
BURLINGTON     PTCLDY    53  41  63 S17       29.89F
WRAY           CLOUDY    57  43  60 SE3       29.87R
STERLING       MOCLDY    57  43  58 S9        29.83S
HOLYOKE        MOCLDY    54  43  66 SE8       29.86F
FORT MORGAN    MOCLDY    54  34  46 CALM      29.85S
$$

COZ086-089-092>099-190800-
...SOUTHEAST COLORADO...

CITY           SKY/WX    TMP DP  RH WIND       PRES   REMARKS
PUEBLO         CLOUDY    57  36  45 SW9       29.90R
LA JUNTA       MOCLDY    63  38  39 SW22      29.88R
LAMAR          PTCLDY    63  37  38 S17       29.85S
SPRINGFIELD      N/A     55  41  59 S21       29.97F
$$



USA.gov is the U.S. government's official web portal to all federal, state and local government web resources and services.